There are multiple Weather-warnings   Click here for more information


Meteo18 Weather Cam more information Meteo18 Weather Cam


Thunder radar more information blitzortung!


warning for Snow/Ice more information rain snow radar


Visit our other weather sites:

Template documentation
and downloads

And another site



Weather Underground History page Text

Daily Summary for August 30, 2017 Units:  English    Metric   Both
« Previous Day
Next Day »
Daily Weekly Monthly Yearly Custom
  High: Low: Average:
Temperature: TemperatureC °F 16.0 °F 21.1 °F
Dew Point: DewpointC °F 14.4 °F 17.6 °F
Humidity: Humidity % 64 % 80 %
Wind Speed: WindSpeedKMH mph 0.0 mph 6.7 mph
Wind Gust: WindSpeedGustKMH mph - -
Wind:- - WSW
Pressure: PressurehPa in 1010.7 in -
Precipitation: 1.5 in    
Historical Graphs
 
 
Tabular Data for August 30, 2017
Time Temperature Dew Point Pressure Wind Wind Speed Wind Gust Humidity Rainfall Rate (Hourly)
TemperatureC °F DewpointC °F PressurehPa in Calm     Humidity % HourlyPrecipMM in
00:02 26.1 °F 18.8 °F 1012.1 in West 8.0 mph 19.3 mph 64 % 0.0 in
00:12 25.9 °F 18.8 °F 1012.1 in West 9.7 mph 19.3 mph 65 % 0.0 in
00:17 25.9 °F 18.8 °F 1012.1 in WSW 11.3 mph 17.7 mph 65 % 0.0 in
00:22 25.7 °F 18.6 °F 1011.7 in WSW 8.0 mph 17.7 mph 65 % 0.0 in
00:32 25.6 °F 18.5 °F 1011.7 in West 12.9 mph 22.5 mph 65 % 0.0 in
00:42 25.1 °F 18.8 °F 1011.7 in WSW 8.0 mph 19.3 mph 68 % 0.0 in
00:52 24.7 °F 18.9 °F 1011.7 in West 12.9 mph 19.3 mph 70 % 0.0 in
00:57 24.6 °F 18.8 °F 1011.7 in West 11.3 mph 19.3 mph 70 % 0.0 in
01:02 24.5 °F 18.9 °F 1011.7 in WSW 11.3 mph 19.3 mph 71 % 0.0 in
01:12 24.3 °F 18.7 °F 1011.7 in West 9.7 mph 19.3 mph 71 % 0.0 in
01:22 24.1 °F 18.7 °F 1011.7 in WSW 9.7 mph 17.7 mph 72 % 0.0 in
01:27 23.9 °F 18.8 °F 1011.7 in West 6.4 mph 17.7 mph 73 % 0.0 in
01:32 23.7 °F 18.8 °F 1011.7 in West 8.0 mph 17.7 mph 74 % 0.0 in
01:37 23.7 °F 18.8 °F 1011.7 in West 3.2 mph 17.7 mph 74 % 0.0 in
01:42 23.5 °F 18.6 °F 1011.7 in WSW 4.8 mph 14.5 mph 74 % 0.0 in
01:47 23.4 °F 18.5 °F 1011.7 in WNW 3.2 mph 14.5 mph 74 % 0.0 in
01:52 23.4 °F 18.7 °F 1011.7 in SW 1.6 mph 14.5 mph 75 % 0.0 in
01:57 23.1 °F 18.6 °F 1011.7 in Calm   12.9 mph 76 % 0.0 in
02:02 22.8 °F 18.8 °F 1011.7 in Calm   12.9 mph 78 % 0.0 in
02:12 22.2 °F 18.6 °F 1011.7 in Calm   8.0 mph 80 % 0.0 in
02:17 22.0 °F 18.6 °F 1011.7 in SSW 1.6 mph 3.2 mph 81 % 0.0 in
02:22 21.8 °F 18.6 °F 1011.7 in Calm   3.2 mph 82 % 0.0 in
02:32 21.6 °F 18.4 °F 1011.7 in Calm   4.8 mph 82 % 0.0 in
02:37 21.6 °F 18.4 °F 1011.7 in Calm   4.8 mph 82 % 0.0 in
02:42 21.5 °F 18.1 °F 1011.7 in Calm   1.6 mph 81 % 0.0 in
02:52 21.2 °F 18.2 °F 1011.4 in Calm   1.6 mph 83 % 0.0 in
03:02 21.1 °F 17.9 °F 1011.4 in SW 3.2 mph 4.8 mph 82 % 0.0 in
03:12 21.2 °F 18.0 °F 1011.4 in SW 3.2 mph 4.8 mph 82 % 0.0 in
03:17 21.2 °F 18.0 °F 1011.7 in SSW 6.4 mph 6.4 mph 82 % 0.0 in
03:22 21.0 °F 18.0 °F 1011.7 in SSW 6.4 mph 6.4 mph 83 % 0.0 in
03:27 20.9 °F 17.9 °F 1011.7 in South 3.2 mph 8.0 mph 83 % 0.0 in
03:32 20.8 °F 18.0 °F 1011.7 in SSW 1.6 mph 8.0 mph 84 % 0.0 in
03:37 20.7 °F 18.1 °F 1011.7 in SSW 3.2 mph 8.0 mph 85 % 0.0 in
03:42 20.6 °F 18.0 °F 1011.7 in SSW 1.6 mph 8.0 mph 85 % 0.0 in
03:52 20.4 °F 18.0 °F 1011.7 in SSW 3.2 mph 4.8 mph 86 % 0.0 in
03:57 20.3 °F 17.9 °F 1011.7 in SSW 1.6 mph 4.8 mph 86 % 0.0 in
04:02 20.1 °F 17.7 °F 1011.7 in SW 3.2 mph 4.8 mph 86 % 0.0 in
04:07 19.9 °F 17.5 °F 1011.7 in SSW 1.6 mph 4.8 mph 86 % 0.0 in
04:12 19.8 °F 17.6 °F 1011.7 in SSW 1.6 mph 4.8 mph 87 % 0.0 in
04:17 19.7 °F 17.5 °F 1011.7 in Calm   4.8 mph 87 % 0.0 in
04:22 19.6 °F 17.4 °F 1011.7 in SSW 1.6 mph 6.4 mph 87 % 0.0 in
04:32 19.5 °F 17.5 °F 1011.7 in Calm   6.4 mph 88 % 0.0 in
04:37 19.4 °F 17.4 °F 1011.7 in SSW 1.6 mph 4.8 mph 88 % 0.0 in
04:42 19.4 °F 17.5 °F 1011.7 in SW 3.2 mph 4.8 mph 89 % 0.0 in
04:47 19.5 °F 17.5 °F 1011.7 in Calm   3.2 mph 88 % 0.0 in
04:52 19.6 °F 17.6 °F 1011.7 in SSW 3.2 mph 4.8 mph 88 % 0.0 in
05:02 19.7 °F 17.7 °F 1012.1 in SW 3.2 mph 6.4 mph 88 % 0.0 in
05:12 19.9 °F 17.7 °F 1012.1 in SW 3.2 mph 6.4 mph 87 % 0.0 in
05:17 19.9 °F 17.7 °F 1012.1 in SSE 1.6 mph 6.4 mph 87 % 0.0 in
05:22 19.9 °F 17.7 °F 1012.1 in Calm   4.8 mph 87 % 0.0 in
05:32 19.8 °F 17.6 °F 1011.7 in Calm   4.8 mph 87 % 0.0 in
05:42 19.8 °F 17.6 °F 1012.1 in Calm   4.8 mph 87 % 0.0 in
05:47 19.8 °F 17.6 °F 1012.1 in Calm   4.8 mph 87 % 0.0 in
05:52 19.8 °F 17.6 °F 1012.1 in SW 1.6 mph 3.2 mph 87 % 0.0 in
05:57 19.9 °F 17.5 °F 1012.1 in WSW 4.8 mph 4.8 mph 86 % 0.0 in
06:02 20.0 °F 17.6 °F 1012.1 in Calm   8.0 mph 86 % 0.0 in
06:12 20.1 °F 17.5 °F 1012.1 in SW 3.2 mph 8.0 mph 85 % 0.0 in
06:17 20.1 °F 17.5 °F 1012.1 in SW 3.2 mph 8.0 mph 85 % 0.0 in
06:32 19.9 °F 17.3 °F 1012.1 in Calm   11.3 mph 85 % 0.0 in
06:37 19.9 °F 17.3 °F 1012.1 in WSW 1.6 mph 8.0 mph 85 % 0.0 in
06:42 19.9 °F 17.3 °F 1012.1 in Calm   8.0 mph 85 % 0.0 in
06:47 19.9 °F 17.3 °F 1012.1 in Calm   8.0 mph 85 % 0.0 in
06:52 19.9 °F 17.3 °F 1012.1 in SW 8.0 mph 8.0 mph 85 % 0.0 in
07:02 19.8 °F 17.4 °F 1012.1 in Calm   6.4 mph 86 % 0.0 in
07:07 19.8 °F 17.4 °F 1012.1 in Calm   6.4 mph 86 % 0.0 in
07:17 19.7 °F 17.3 °F 1012.1 in Calm   8.0 mph 86 % 0.0 in
07:22 19.7 °F 17.3 °F 1012.1 in SW 1.6 mph 4.8 mph 86 % 0.0 in
07:32 19.7 °F 17.3 °F 1012.1 in SW 3.2 mph 6.4 mph 86 % 0.0 in
07:42 19.7 °F 17.3 °F 1012.4 in SW 1.6 mph 6.4 mph 86 % 0.0 in
08:02 19.6 °F 17.2 °F 1012.8 in SW 9.7 mph 9.7 mph 86 % 0.0 in
08:12 19.7 °F 17.3 °F 1012.8 in SSW 6.4 mph 12.9 mph 86 % 0.0 in
08:17 19.7 °F 17.3 °F 1012.8 in SSW 4.8 mph 12.9 mph 86 % 0.0 in
08:22 19.8 °F 17.4 °F 1012.8 in SW 6.4 mph 9.7 mph 86 % 0.0 in
08:32 19.9 °F 17.3 °F 1012.8 in SW 9.7 mph 11.3 mph 85 % 0.0 in
08:42 20.0 °F 17.4 °F 1012.8 in WSW 1.6 mph 12.9 mph 85 % 0.0 in
08:52 20.1 °F 17.3 °F 1012.8 in South 9.7 mph 12.9 mph 84 % 0.0 in
09:02 20.1 °F 17.3 °F 1012.8 in WSW 3.2 mph 12.9 mph 84 % 0.0 in
09:12 20.3 °F 17.5 °F 1012.8 in West 4.8 mph 12.9 mph 84 % 0.0 in
09:17 20.5 °F 17.5 °F 1012.8 in SW 6.4 mph 12.9 mph 83 % 0.0 in
09:22 20.6 °F 17.4 °F 1012.8 in SSE 4.8 mph 14.5 mph 82 % 0.0 in
09:27 20.7 °F 17.5 °F 1012.8 in West 8.0 mph 14.5 mph 82 % 0.0 in
09:32 20.9 °F 17.7 °F 1012.8 in SW 14.5 mph 16.1 mph 82 % 0.0 in
09:42 21.0 °F 17.4 °F 1012.8 in WSW 6.4 mph 22.5 mph 80 % 0.0 in
09:47 21.0 °F 17.4 °F 1013.1 in West 3.2 mph 22.5 mph 80 % 0.0 in
09:57 21.1 °F 17.3 °F 1013.1 in WSW 12.9 mph 19.3 mph 79 % 0.0 in
10:02 21.0 °F 17.4 °F 1013.1 in SW 8.0 mph 24.1 mph 80 % 0.0 in
10:12 21.2 °F 17.4 °F 1013.1 in West 8.0 mph 24.1 mph 79 % 0.0 in
10:17 21.2 °F 17.4 °F 1013.1 in West 12.9 mph 24.1 mph 79 % 0.0 in
10:22 21.4 °F 17.6 °F 1013.1 in SW 1.6 mph 17.7 mph 79 % 0.0 in
10:32 21.6 °F 17.6 °F 1013.1 in WSW 14.5 mph 19.3 mph 78 % 0.0 in
10:42 21.5 °F 17.5 °F 1012.8 in SW 4.8 mph 20.9 mph 78 % 0.0 in
10:47 21.5 °F 17.5 °F 1013.1 in WSW 6.4 mph 20.9 mph 78 % 0.0 in
10:52 21.6 °F 17.6 °F 1013.1 in WSW 6.4 mph 14.5 mph 78 % 0.0 in
10:57 21.7 °F 17.9 °F 1013.1 in West 8.0 mph 14.5 mph 79 % 0.0 in
11:02 21.9 °F 17.7 °F 1013.1 in WSW 12.9 mph 14.5 mph 77 % 0.0 in
11:12 21.8 °F 17.8 °F 1013.4 in SW 9.7 mph 16.1 mph 78 % 0.0 in
11:17 21.7 °F 17.7 °F 1013.8 in WSW 6.4 mph 16.1 mph 78 % 0.0 in
11:22 21.7 °F 17.7 °F 1013.8 in WSW 4.8 mph 17.7 mph 78 % 0.0 in
11:32 21.6 °F 17.8 °F 1013.4 in SW 12.9 mph 17.7 mph 79 % 0.0 in
11:37 21.4 °F 17.6 °F 1013.4 in SW 12.9 mph 17.7 mph 79 % 0.0 in
11:42 21.5 °F 17.7 °F 1013.4 in WSW 12.9 mph 16.1 mph 79 % 0.0 in
11:47 21.6 °F 17.8 °F 1013.4 in SW 12.9 mph 16.1 mph 79 % 0.0 in
11:57 21.8 °F 18.0 °F 1013.4 in SW 6.4 mph 20.9 mph 79 % 0.0 in
12:02 21.9 °F 17.9 °F 1013.4 in SW 8.0 mph 20.9 mph 78 % 0.0 in
12:12 21.9 °F 17.7 °F 1013.1 in SW 11.3 mph 16.1 mph 77 % 0.0 in
12:17 21.9 °F 17.5 °F 1013.1 in WSW 8.0 mph 16.1 mph 76 % 0.0 in
12:22 21.9 °F 17.7 °F 1013.1 in SW 16.1 mph 16.1 mph 77 % 0.0 in
12:32 22.1 °F 17.9 °F 1013.1 in WSW 3.2 mph 16.1 mph 77 % 0.0 in
12:37 22.2 °F 18.0 °F 1012.8 in SW 6.4 mph 16.1 mph 77 % 0.0 in
12:42 22.2 °F 17.8 °F 1012.8 in West 4.8 mph 17.7 mph 76 % 0.0 in
12:47 22.1 °F 17.7 °F 1013.1 in WSW 6.4 mph 17.7 mph 76 % 0.0 in
12:52 22.1 °F 17.7 °F 1012.8 in SW 3.2 mph 16.1 mph 76 % 0.0 in
13:02 22.1 °F 17.7 °F 1012.8 in South 9.7 mph 16.1 mph 76 % 0.0 in
13:12 22.2 °F 17.6 °F 1013.1 in SSW 6.4 mph 17.7 mph 75 % 0.0 in
13:17 22.2 °F 17.8 °F 1012.8 in SW 3.2 mph 17.7 mph 76 % 0.0 in
13:22 22.2 °F 17.8 °F 1012.8 in WSW 3.2 mph 17.7 mph 76 % 0.0 in
13:32 22.4 °F 18.0 °F 1012.8 in WSW 6.4 mph 14.5 mph 76 % 0.0 in
13:42 22.6 °F 17.9 °F 1012.8 in SW 12.9 mph 12.9 mph 75 % 0.0 in
13:47 22.6 °F 17.7 °F 1013.1 in SSW 6.4 mph 12.9 mph 74 % 0.0 in
13:52 22.6 °F 17.7 °F 1012.8 in WSW 11.3 mph 19.3 mph 74 % 0.0 in
14:02 22.6 °F 17.5 °F 1012.8 in SW 6.4 mph 19.3 mph 73 % 0.0 in
14:12 22.5 °F 17.4 °F 1013.1 in WSW 6.4 mph 24.1 mph 73 % 0.0 in
14:17 22.4 °F 17.5 °F 1013.1 in West 4.8 mph 24.1 mph 74 % 0.0 in
14:27 22.6 °F 17.7 °F 1013.1 in SW 12.9 mph 24.1 mph 74 % 0.0 in
14:32 22.6 °F 17.7 °F 1013.1 in SW 16.1 mph 24.1 mph 74 % 0.0 in
14:42 22.7 °F 17.6 °F 1013.1 in SSW 6.4 mph 20.9 mph 73 % 0.0 in
14:52 22.8 °F 17.5 °F 1013.1 in SSW 11.3 mph 22.5 mph 72 % 0.0 in
15:02 22.9 °F 17.8 °F 1013.4 in South 11.3 mph 20.9 mph 73 % 0.0 in
15:07 22.7 °F 17.6 °F 1013.1 in WSW 14.5 mph 20.9 mph 73 % 0.0 in
15:12 22.4 °F 18.0 °F 1013.1 in South 16.1 mph 24.1 mph 76 % 0.0 in
15:22 22.2 °F 18.4 °F 1012.8 in WSW 11.3 mph 24.1 mph 79 % 0.0 in
15:32 22.3 °F 18.3 °F 1012.8 in WSW 12.9 mph 20.9 mph 78 % 0.0 in
15:42 22.3 °F 18.1 °F 1012.4 in SW 14.5 mph 20.9 mph 77 % 0.0 in
15:52 22.6 °F 18.4 °F 1012.1 in SSW 6.4 mph 20.9 mph 77 % 0.0 in
16:02 22.8 °F 18.1 °F 1012.4 in SSW 11.3 mph 16.1 mph 75 % 0.0 in
16:12 23.1 °F 18.0 °F 1012.4 in SSW 12.9 mph 22.5 mph 73 % 0.0 in
16:17 23.1 °F 18.0 °F 1012.4 in SW 8.0 mph 24.1 mph 73 % 0.0 in
16:22 23.2 °F 17.9 °F 1012.1 in SSW 12.9 mph 24.1 mph 72 % 0.0 in
16:27 23.3 °F 17.7 °F 1011.7 in SW 14.5 mph 29.0 mph 71 % 0.0 in
16:32 23.4 °F 18.3 °F 1011.7 in SW 8.0 mph 29.0 mph 73 % 0.0 in
16:37 23.4 °F 18.3 °F 1011.7 in WSW 22.5 mph 29.0 mph 73 % 0.0 in
16:42 23.4 °F 18.1 °F 1011.7 in WSW 11.3 mph 29.0 mph 72 % 0.0 in
16:52 23.6 °F 18.3 °F 1011.7 in SSW 14.5 mph 22.5 mph 72 % 0.0 in
16:57 23.6 °F 18.3 °F 1011.7 in SW 11.3 mph 25.7 mph 72 % 0.0 in
17:02 23.5 °F 17.9 °F 1011.7 in WSW 17.7 mph 25.7 mph 71 % 0.0 in
17:12 23.7 °F 17.9 °F 1011.4 in WSW 11.3 mph 24.1 mph 70 % 0.0 in
17:22 23.7 °F 17.7 °F 1011.4 in SW 11.3 mph 24.1 mph 69 % 0.0 in
17:32 23.8 °F 18.0 °F 1011.1 in WSW 16.1 mph 22.5 mph 70 % 0.0 in
17:42 23.8 °F 17.8 °F 1011.1 in SW 17.7 mph 22.5 mph 69 % 0.0 in
17:47 23.8 °F 18.0 °F 1011.1 in SW 17.7 mph 20.9 mph 70 % 0.0 in
17:52 23.9 °F 18.1 °F 1011.1 in SW 14.5 mph 20.9 mph 70 % 0.0 in
18:02 23.9 °F 18.1 °F 1011.1 in WSW 11.3 mph 24.1 mph 70 % 0.0 in
18:12 23.9 °F 18.1 °F 1010.7 in SSW 6.4 mph 24.1 mph 70 % 0.0 in
18:17 23.9 °F 18.1 °F 1010.7 in SW 8.0 mph 25.7 mph 70 % 0.0 in
18:22 23.8 °F 18.2 °F 1010.7 in South 8.0 mph 25.7 mph 71 % 0.0 in
18:32 23.7 °F 18.1 °F 1011.1 in SSW 6.4 mph 24.1 mph 71 % 0.0 in
18:42 23.6 °F 18.3 °F 1011.1 in SW 11.3 mph 20.9 mph 72 % 0.0 in
18:52 23.7 °F 17.9 °F 1010.7 in SSW 14.5 mph 20.9 mph 70 % 0.0 in
18:57 23.7 °F 17.9 °F 1010.7 in SW 19.3 mph 19.3 mph 70 % 0.0 in
19:02 23.7 °F 18.1 °F 1011.4 in West 19.3 mph 22.5 mph 71 % 0.0 in
19:12 20.1 °F 17.9 °F 1011.4 in WNW 14.5 mph 32.2 mph 87 % 0.0 in
19:17 19.7 °F 17.8 °F 1011.4 in WSW 14.5 mph 35.4 mph 89 % 1.3 in
19:22 19.7 °F 18.0 °F 1011.4 in WNW 4.8 mph 35.4 mph 90 % 1.5 in
19:27 19.7 °F 18.0 °F 1011.4 in WSW 6.4 mph 24.1 mph 90 % 1.5 in
19:32 19.8 °F 18.1 °F 1011.4 in West 9.7 mph 19.3 mph 90 % 1.5 in
19:42 20.0 °F 18.3 °F 1011.4 in WSW 11.3 mph 17.7 mph 90 % 1.5 in
19:52 19.9 °F 18.2 °F 1011.7 in West 6.4 mph 17.7 mph 90 % 1.5 in
19:57 19.9 °F 18.2 °F 1011.7 in SW 3.2 mph 17.7 mph 90 % 1.5 in
20:02 19.8 °F 18.1 °F 1011.7 in WSW 4.8 mph 16.1 mph 90 % 1.5 in
20:12 19.7 °F 18.0 °F 1011.7 in WSW 9.7 mph 16.1 mph 90 % 1.5 in
20:17 19.7 °F 18.0 °F 1012.1 in West 3.2 mph 11.3 mph 90 % 0.3 in
20:22 19.7 °F 18.0 °F 1012.1 in WSW 1.6 mph 12.9 mph 90 % 0.0 in
20:32 19.6 °F 17.9 °F 1012.4 in SW 4.8 mph 12.9 mph 90 % 0.0 in
20:42 19.6 °F 18.1 °F 1012.8 in WSW 3.2 mph 11.3 mph 91 % 0.0 in
20:47 19.5 °F 18.0 °F 1012.8 in WSW 4.8 mph 11.3 mph 91 % 0.0 in
20:52 19.5 °F 18.0 °F 1012.8 in SW 6.4 mph 11.3 mph 91 % 0.0 in
20:57 19.5 °F 17.8 °F 1012.8 in WSW 3.2 mph 12.9 mph 90 % 0.0 in
21:02 19.4 °F 17.7 °F 1012.8 in SW 9.7 mph 12.9 mph 90 % 0.0 in
21:12 19.4 °F 17.9 °F 1013.1 in SW 9.7 mph 12.9 mph 91 % 0.0 in
21:17 19.3 °F 17.8 °F 1012.8 in WSW 4.8 mph 14.5 mph 91 % 0.0 in
21:22 19.3 °F 17.8 °F 1013.1 in West 4.8 mph 12.9 mph 91 % 0.0 in
21:32 19.2 °F 17.7 °F 1013.1 in West 1.6 mph 12.9 mph 91 % 0.0 in
21:42 19.0 °F 17.5 °F 1013.1 in West 1.6 mph 11.3 mph 91 % 0.0 in
21:47 18.9 °F 17.4 °F 1013.1 in WSW 3.2 mph 9.7 mph 91 % 0.0 in
21:57 18.8 °F 17.3 °F 1013.4 in WNW 6.4 mph 9.7 mph 91 % 0.0 in
22:02 18.8 °F 17.3 °F 1013.4 in West 4.8 mph 9.7 mph 91 % 0.0 in
22:12 18.7 °F 17.0 °F 1013.8 in WSW 3.2 mph 9.7 mph 90 % 0.0 in
22:17 18.6 °F 16.8 °F 1013.8 in WNW 8.0 mph 11.3 mph 89 % 0.0 in
22:22 18.5 °F 16.7 °F 1013.8 in WNW 9.7 mph 16.1 mph 89 % 0.0 in
22:27 18.4 °F 16.6 °F 1013.8 in NW 1.6 mph 16.1 mph 89 % 0.0 in
22:32 18.3 °F 16.5 °F 1013.8 in West 3.2 mph 16.1 mph 89 % 0.0 in
22:42 18.2 °F 16.2 °F 1014.1 in WNW 4.8 mph 14.5 mph 88 % 0.0 in
22:52 17.9 °F 15.9 °F 1014.1 in West 3.2 mph 16.1 mph 88 % 0.0 in
22:57 17.9 °F 15.9 °F 1014.1 in West 4.8 mph 16.1 mph 88 % 0.0 in
23:02 17.8 °F 16.0 °F 1014.1 in WNW 6.4 mph 14.5 mph 89 % 0.0 in
23:12 17.6 °F 15.8 °F 1014.1 in NW 8.0 mph 14.5 mph 89 % 0.0 in
23:17 17.5 °F 15.7 °F 1014.1 in Calm   12.9 mph 89 % 0.0 in
23:22 17.4 °F 15.6 °F 1014.4 in NW 3.2 mph 12.9 mph 89 % 0.0 in
23:27 17.3 °F 15.3 °F 1014.4 in WNW 6.4 mph 12.9 mph 88 % 0.0 in
23:32 17.1 °F 15.3 °F 1014.4 in WNW 6.4 mph 12.9 mph 89 % 0.0 in
23:42 16.7 °F 14.9 °F 1014.4 in WNW 11.3 mph 14.5 mph 89 % 0.0 in
23:47 16.5 °F 14.9 °F 1014.4 in North 6.4 mph 14.5 mph 90 % 0.0 in
23:52 16.3 °F 14.7 °F 1014.4 in NW 3.2 mph 14.5 mph 90 % 0.0 in
23:57 16.0 °F 14.4 °F 1014.4 in NNW 1.6 mph 14.5 mph 90 % 0.0 in
Meteo18
Compliments of Weather Underground - 4 mb

Script developed by  Jim McMurry - jmcmurry@mwt.net Adapted for the template by  Wim van der Kuil - Leuven-Template.eu

You find our weather info also at:

European Weather Network

Weather Underground

Equipment we use:

Weather-station
Davis Vue

Weather-program
Meteobridge

Weather-server
Raspberry PI 2 B+

Provider
1 and 1

Davis Vue

Meteobridge

Raspberry PI 2 B+

1 and 1